Weather reports worldwide

Advertisment
Kyiv, Ukraine (33345): temperature & dewpoint: 13.09.2019 21:00:00 - 19.09.2019 21:00:00 (EEST)Kyiv, Ukraine (33345): wind speed: 13.09.2019 21:00:00 - 19.09.2019 21:00:00 (EEST)Kyiv, Ukraine (33345): wind direction: 13.09.2019 21:00:00 - 19.09.2019 21:00:00 (EEST)Kyiv, Ukraine (33345): reduced air pressure: 13.09.2019 21:00:00 - 19.09.2019 21:00:00 (EEST)Kyiv, Ukraine (33345): visibility: 13.09.2019 21:00:00 - 19.09.2019 21:00:00 (EEST)
Date & Time tt [°C] td [°C] ff [km/h] ff [kn] dd ppp [hPa] vv [km]
19.09.2019 21:00:00 - - - - - - -
19.09.2019 20:00:00 - - - - - - -
19.09.2019 19:00:00 - - - - - - -
19.09.2019 18:00:00 13,9 3,5 11 6 NW 1017,4 20
19.09.2019 17:00:00 - - - - - - -
19.09.2019 16:00:00 - - - - - - -
19.09.2019 15:00:00 13,0 3,4 11 6 WNW 1017,6 20
19.09.2019 14:00:00 - - - - - - -
19.09.2019 13:00:00 - - - - - - -
19.09.2019 12:00:00 10,9 3,9 14 8 NW 1018,0 20
19.09.2019 11:00:00 - - - - - - -
19.09.2019 10:00:00 - - - - - - -
19.09.2019 09:00:00 7,5 5,0 11 6 WNW 1017,2 10
19.09.2019 08:00:00 - - - - - - -
19.09.2019 07:00:00 - - - - - - -
19.09.2019 06:00:00 7,0 5,0 11 6 WNW 1016,1 4,0
19.09.2019 05:00:00 - - - - - - -
19.09.2019 04:00:00 - - - - - - -
19.09.2019 03:00:00 8,1 5,4 14 8 WNW 1015,4 10
19.09.2019 02:00:00 - - - - - - -
19.09.2019 01:00:00 - - - - - - -
19.09.2019 00:00:00 9,0 5,7 14 8 NW 1013,6 10
18.09.2019 23:00:00 - - - - - - -
18.09.2019 22:00:00 - - - - - - -
18.09.2019 21:00:00 10,0 4,2 22 12 NNW 1011,7 20
18.09.2019 20:00:00 - - - - - - -
18.09.2019 19:00:00 - - - - - - -
18.09.2019 18:00:00 10,7 4,5 14 8 NW 1008,5 20
18.09.2019 17:00:00 - - - - - - -
18.09.2019 16:00:00 - - - - - - -
18.09.2019 15:00:00 12,0 3,2 18 10 NNW 1006,8 20
18.09.2019 14:00:00 - - - - - - -
18.09.2019 13:00:00 - - - - - - -
18.09.2019 12:00:00 11,3 2,0 18 10 WNW 1005,4 20
18.09.2019 11:00:00 - - - - - - -
18.09.2019 10:00:00 - - - - - - -
18.09.2019 09:00:00 10,2 1,7 25 14 NW 1004,2 20
18.09.2019 08:00:00 - - - - - - -
18.09.2019 07:00:00 - - - - - - -
18.09.2019 06:00:00 11,0 5,4 14 8 W 1002,2 20
18.09.2019 05:00:00 - - - - - - -
18.09.2019 04:00:00 - - - - - - -
18.09.2019 03:00:00 12,1 3,7 14 8 W 1003,7 20
18.09.2019 02:00:00 - - - - - - -
18.09.2019 01:00:00 - - - - - - -
18.09.2019 00:00:00 14,1 2,4 14 8 W 1005,2 20
17.09.2019 23:00:00 - - - - - - -
17.09.2019 22:00:00 - - - - - - -
17.09.2019 21:00:00 13,2 0,8 7 4 WSW 1006,7 20
17.09.2019 20:00:00 - - - - - - -
17.09.2019 19:00:00 - - - - - - -
17.09.2019 18:00:00 17,4 -0,1 14 8 NW 1006,7 20
17.09.2019 17:00:00 - - - - - - -
17.09.2019 16:00:00 - - - - - - -
17.09.2019 15:00:00 18,0 -0,4 14 8 N 1007,8 20
17.09.2019 14:00:00 - - - - - - -
17.09.2019 13:00:00 - - - - - - -
17.09.2019 12:00:00 16,2 1,9 18 10 NW 1009,2 20
17.09.2019 11:00:00 - - - - - - -
17.09.2019 10:00:00 - - - - - - -
17.09.2019 09:00:00 13,0 5,1 11 6 NW 1009,9 20
17.09.2019 08:00:00 - - - - - - -
17.09.2019 07:00:00 - - - - - - -
17.09.2019 06:00:00 12,7 5,2 4 2 WNW 1009,5 20
17.09.2019 05:00:00 - - - - - - -
17.09.2019 04:00:00 - - - - - - -
17.09.2019 03:00:00 14,1 5,2 4 2 NNW 1009,4 20
17.09.2019 02:00:00 - - - - - - -
17.09.2019 01:00:00 - - - - - - -
17.09.2019 00:00:00 17,1 5,1 11 6 N 1009,5 20
16.09.2019 23:00:00 - - - - - - -
16.09.2019 22:00:00 - - - - - - -
16.09.2019 21:00:00 18,3 6,5 11 6 WNW 1009,1 20
16.09.2019 20:00:00 - - - - - - -
16.09.2019 19:00:00 - - - - - - -
16.09.2019 18:00:00 21,3 5,0 18 10 W 1008,4 20
16.09.2019 17:00:00 - - - - - - -
16.09.2019 16:00:00 - - - - - - -
16.09.2019 15:00:00 22,9 4,3 22 12 WNW 1009,1 20
16.09.2019 14:00:00 - - - - - - -
16.09.2019 13:00:00 - - - - - - -
16.09.2019 12:00:00 20,0 8,1 18 10 W 1010,8 20
16.09.2019 11:00:00 - - - - - - -
16.09.2019 10:00:00 - - - - - - -
16.09.2019 09:00:00 15,7 6,5 14 8 WNW 1011,8 20
16.09.2019 08:00:00 - - - - - - -
16.09.2019 07:00:00 - - - - - - -
16.09.2019 06:00:00 14,6 4,8 14 8 W 1012,5 20
16.09.2019 05:00:00 - - - - - - -
16.09.2019 04:00:00 - - - - - - -
16.09.2019 03:00:00 13,7 3,3 11 6 W 1014,7 20
16.09.2019 02:00:00 - - - - - - -
16.09.2019 01:00:00 - - - - - - -
16.09.2019 00:00:00 14,7 3,0 11 6 WSW 1016,0 20
15.09.2019 23:00:00 - - - - - - -
15.09.2019 22:00:00 - - - - - - -
15.09.2019 21:00:00 15,7 3,2 11 6 WSW 1017,9 20
15.09.2019 20:00:00 - - - - - - -
15.09.2019 19:00:00 - - - - - - -
15.09.2019 18:00:00 19,6 2,0 11 6 W 1019,2 20
15.09.2019 17:00:00 - - - - - - -
15.09.2019 16:00:00 - - - - - - -
15.09.2019 15:00:00 19,9 2,8 14 8 WNW 1021,9 20
15.09.2019 14:00:00 - - - - - - -
15.09.2019 13:00:00 - - - - - - -
15.09.2019 12:00:00 17,4 4,8 11 6 NW 1024,3 20
15.09.2019 11:00:00 - - - - - - -
15.09.2019 10:00:00 - - - - - - -
15.09.2019 09:00:00 12,1 5,2 11 6 NW 1026,0 20
15.09.2019 08:00:00 - - - - - - -
15.09.2019 07:00:00 - - - - - - -
15.09.2019 06:00:00 9,7 4,0 7 4 NW 1025,8 20
15.09.2019 05:00:00 - - - - - - -
15.09.2019 04:00:00 - - - - - - -
15.09.2019 03:00:00 11,5 3,6 7 4 WNW 1025,5 20
15.09.2019 02:00:00 - - - - - - -
15.09.2019 01:00:00 - - - - - - -
15.09.2019 00:00:00 13,7 2,3 7 4 NNW 1026,0 20
14.09.2019 23:00:00 - - - - - - -
14.09.2019 22:00:00 - - - - - - -
14.09.2019 21:00:00 16,0 0,4 7 4 N 1025,1 20
14.09.2019 20:00:00 - - - - - - -
14.09.2019 19:00:00 - - - - - - -
14.09.2019 18:00:00 19,5 -0,4 11 6 N 1023,2 20
14.09.2019 17:00:00 - - - - - - -
14.09.2019 16:00:00 - - - - - - -
14.09.2019 15:00:00 20,1 3,1 14 8 NNE 1023,2 20
14.09.2019 14:00:00 - - - - - - -
14.09.2019 13:00:00 - - - - - - -
14.09.2019 12:00:00 17,5 9,5 14 8 N 1023,6 20
14.09.2019 11:00:00 - - - - - - -
14.09.2019 10:00:00 - - - - - - -
14.09.2019 09:00:00 17,2 11,1 11 6 N 1022,1 20
14.09.2019 08:00:00 - - - - - - -
14.09.2019 07:00:00 - - - - - - -
14.09.2019 06:00:00 16,5 10,3 7 4 NNW 1021,1 20
14.09.2019 05:00:00 - - - - - - -
14.09.2019 04:00:00 - - - - - - -
14.09.2019 03:00:00 16,4 9,3 7 4 WNW 1021,6 20
14.09.2019 02:00:00 - - - - - - -
14.09.2019 01:00:00 - - - - - - -
14.09.2019 00:00:00 19,0 9,3 4 2 NW 1022,3 20
13.09.2019 23:00:00 - - - - - - -
13.09.2019 22:00:00 - - - - - - -
13.09.2019 21:00:00 22,1 9,0 7 4 NNW 1022,1 20

tt = temperature
td = dewpoint
ff = wind speed
dd = wind direction
ppp = reduced air pressure
vv = visibility

Next stations